Home   Weather   Kapfenberg   Past weeks

Flag for Austria Past Weather in Kapfenberg, Styria, Austria — Yesterday and Last 2 Weeks

Now
30 °F

Clear.


Feels Like: 27 °F
Forecast: 30 / 51 °F
Wind: 3 mph from North

Location: Zeltweg

Current Time: Dec 9, 2016 at 6:45:02 pm

Latest Report: Dec 9, 2016 at 5:50 pm


Visibility: 9 mi

Pressure: 30.39 "Hg (28.53 "Hg at 504m altitude)

Humidity: 75%

Dew Point: 23 °F

Location of KapfenbergLocation

Past Weather in Kapfenberg — Graph

°F

Kapfenberg Temperature Yesterday

Maximum temperature yesterday: 41 °F (at 2:50 pm)
Minimum temperature yesterday: 18 °F (at 3:50 am)
Average temperature yesterday: 27 °F

High & Low Weather Summary for the Past Weeks

 TemperatureHumidityPressure
High54 °F (Nov 27, 1:20 pm)100% (Nov 24, 6:50 pm)30.63 "Hg (Nov 24, 6:50 pm)
Low14 °F (Dec 6, 4:50 am)21% (Dec 2, 5:50 am)29.80 "Hg (Dec 2, 5:50 am)
Average34 °F71%30.23 "Hg
* Reported Nov 24 4:20 pm — Dec 9 4:50 pm, Kapfenberg, Weather by CustomWeather, © 2016

Note: Actual official high and low records may vary slightly from our data, if they occured in-between our weather recording intervals... More about our weather records

Advertising

Kapfenberg Weather History for the Previous 24 Hours

Scroll right to see more
 ConditionsComfort  
Time TempWeatherWind HumidityBarometerVisibility
4:50 pm
Fri, Dec 9
28 °FPassing clouds.3 mph80%30.36 "Hg12 mi
3:50 pm32 °FPartly sunny.2 mph75%30.36 "Hg22 mi
2:50 pm37 °FPartly sunny.1 mph65%30.36 "Hg25 mi
1:50 pm39 °FPartly sunny.2 mph56%30.39 "Hg25 mi
12:50 pm41 °FPartly sunny.1 mph49%30.39 "Hg25 mi
11:50 am37 °FScattered clouds.1 mph56%30.42 "Hg25 mi
10:50 am30 °FScattered clouds.1 mph80%30.45 "Hg25 mi
9:50 am28 °FPassing clouds.2 mph80%30.45 "Hg19 mi
8:50 am23 °FPassing clouds.2 mph86%30.45 "Hg16 mi
7:50 am19 °FPassing clouds.1 mph86%30.42 "Hg16 mi
6:50 am19 °FClear.1 mph93%30.45 "Hg12 mi
5:50 am21 °FClear.2 mph93%30.45 "Hg9 mi
4:50 am21 °FPassing clouds.1 mph86%30.45 "Hg9 mi
9:50 pm
Thu, Dec 8
21 °FPassing clouds.2 mph86%30.51 "Hg9 mi
8:50 pm25 °FPassing clouds.1 mph86%30.51 "Hg9 mi
7:50 pm25 °FPassing clouds.1 mph86%30.51 "Hg12 mi
6:50 pm27 °FPassing clouds.1 mph86%30.51 "Hg12 mi
Weather by CustomWeather, © 2016

See weather overviewHow to use our weather pages